Location: ????????
(38.4362°N, 22.8767°E)
Time: 17:31:24
(UTC+00:00)

ACS3 Solar Sail - Pass Details

Date: 27 June 2024
Orbit: 992 x 1023 km, 97.4° (Epoch: 14 July)

Event Time Altitude Azimuth Distance (km) Brightness Sun altitude
Exits shadow 18:53:37 12° 122° (ESE) 2,625 6.4 -9.9°
Maximum altitude 18:58:21 29° 67° (ENE) 1,747 5.9 -10.6°
Drops below altitude 10° 19:03:32 10° 11° (N) 2,764 7.6 -11.3°
Sets 19:06:20 0° 0° (N) 3,716 8.5 -11.8°
